Regional Weather Roundup
Issued by NWS Boston, MA

Home | Current Version | Previous Version | Text Only | Print | Product List | Glossary On
Versions: 1 2 3 4 5 6 7 8 9 10 11 12 13 14 15 16 17 18 19 20 21 22 23 24 25 26 27
000
ASUS41 KBOX 222110
RWRBOX

REGIONAL WEATHER ROUNDUP
NATIONAL WEATHER SERVICE TAUNTON MA
500 PM EDT WED MAR 22 2017

NOTE:  "FAIR" INDICATES FEW OR NO CLOUDS BELOW 12,000 FEET WITH NO
SIGNIFICANT WEATHER AND/OR OBSTRUCTIONS TO VISIBILITY.

MAZALL-222200-
EASTERN MASSACHUSETTS

CITY           SKY/WX    TMP DP  RH WIND       PRES   REMARKS
BOSTON         MOSUNNY   27  -5  24 NW28G47   30.07R WCI  11
BEVERLY        SUNNY     26  -3  28 NW32G40   30.05R WCI   9
LAWRENCE       SUNNY     23  -6  28 NW17G33   30.09R WCI   9
BEDFORD        SUNNY     26  -6  24 NW23G41   30.08R WCI  11
BLUE HILL        N/A     24  -3  30 NW18G39   30.01R WCI  10
NORWOOD        SUNNY     28  -5  23 NW24G39   30.08R WCI  14
MARSHFIELD     SUNNY     30  -6  21 NW22G31   30.03R WCI  17
PLYMOUTH       SUNNY     29  -5  22 NW23G33   30.03  WCI  15
TAUNTON        SUNNY     29  -8  20 NW18G45   30.06R WCI  16
NEW BEDFORD    SUNNY     31  -7  19 NW20G33   30.04R WCI  19
$$

MAZALL-222200-
CAPE COD AND THE ISLANDS

CITY           SKY/WX    TMP DP  RH WIND       PRES   REMARKS
FALMOUTH         N/A    N/A N/A N/A MISG        N/A
HYANNIS        SUNNY     32   4  30 NW16G33   29.97R WCI  21
CHATHAM        SUNNY     30   2  30 NW22G40   30.00R WCI  17
PROVINCETOWN   SUNNY     28   6  39 NW32G49   30.03R WCI  12
NANTUCKET      SUNNY     33   3  28 NW26G37   29.99R WCI  20
MARTHAS VNYRD  SUNNY     33  -3  21 NW25G41   30.01R WCI  20
$$

MAZALL-222200-
CENTRAL AND WESTERN MASSACHUSETTS

CITY           SKY/WX    TMP DP  RH WIND       PRES   REMARKS
WORCESTER      MOSUNNY   24  -5  27 W25G36    30.03R WCI   8
FITCHBURG      SUNNY     25  -5  26 NW25G41   30.11R WCI   9
ORANGE         SUNNY     24  -3  30 NW22G32   30.12R WCI   9
SPRINGFIELD    SUNNY     27  -4  25 NW24G35   30.13R WCI  13
WESTFIELD      SUNNY     27  -4  26 NW26G36   30.16R WCI  12
NORTH ADAMS    SUNNY     23  -6  28 NW10G30   30.19R WCI  12
PITTSFIELD     SUNNY     21  -7  28 NW23G37   30.14R WCI   5
$$

RIZALL-222200-
RHODE ISLAND

CITY           SKY/WX    TMP DP  RH WIND       PRES   REMARKS
PROVIDENCE     MOSUNNY   31  -4  22 NW24G36   30.07R WCI  17
NEWPORT        SUNNY     31   2  29 NW24G37   30.05R WCI  17
BLOCK ISLAND   SUNNY     31   2  29 NW22G36   30.08R WCI  18
SMITHFIELD     SUNNY     28  -1  28 NW20G32   30.06R WCI  15
WESTERLY       SUNNY     33  -6  18 NW17G31   30.10R WCI  22
$$

CTZALL-222200-
CONNECTICUT

CITY           SKY/WX    TMP DP  RH WIND       PRES   REMARKS
BRADLEY INTL   SUNNY     28  -5  23 NW21G32   30.16R WCI  15
HARTFORD       SUNNY     28  -1  28 NW20G29   30.18R WCI  15
BRIDGEPORT     SUNNY     32  -6  19 NW20G36   30.20R WCI  20
DANBURY        SUNNY     28  -6  22 NW17G26   30.21R WCI  16
GROTON         SUNNY     32  -4  21 NW28G36   30.11R WCI  18
NEW HAVEN      SUNNY     29  -6  22 NW16G35   30.19R WCI  17
CHESTER        FAIR      28  -8  20 NW18G30   30.13R WCI  16
MERIDEN        SUNNY     29  -3  25 NW16G26   30.19R WCI  17
WILLIMANTIC    SUNNY     31  -5  21 NW17G32   30.13R WCI  19
OXFORD         SUNNY     25  -6  26 N24G36    30.18R WCI   9
$$

MEZ002-015-021-024-NHZ003-005-008-011-012-014-VTZ005-008-222200-
NORTHERN NEW ENGLAND

CITY           SKY/WX    TMP DP  RH WIND       PRES   REMARKS
PORTLAND ME    MOSUNNY   22  -3  33 NW26G36   30.01R WCI   5
BANGOR ME      CLOUDY    19   6  57 NW35G44   29.89R BLWGSNOWWCI  -1
CONCORD NH     SUNNY     20  -4  34 NW26G40   30.10R WCI   2
MANCHESTER NH  SUNNY     23  -6  28 NW26G37   30.09R WCI   6
NASHUA NH      SUNNY     25  -4  28 NW33G44   30.10R WCI   7
PORTSMOUTH NH  SUNNY     23  -4  30 NW25G38   30.03R WCI   6
JAFFREY NH     MOSUNNY   21 -10  25 NW17G31   30.08R WCI   7
KEENE NH       SUNNY     22  -2  35 N24G35    30.15R WCI   5
BURLINGTON VT  MOSUNNY   17  -4  39 NW20G36   30.31R WCI   1
MT. WASHINGTON BLWGSNOW -13 -13 100 NW81G89     N/A  VSB 1/8 WCI -56
$$

NYZ052-076-222200-
EASTERN NEW YORK

CITY           SKY/WX    TMP DP  RH WIND       PRES   REMARKS
ALBANY         MOSUNNY   26  -4  27 NW20G30   30.28R WCI  12
NEW YORK CITY  SUNNY     35   5  28 NW28G38   30.22R WCI  22
$$

ANZALL-222200-
MARINE OBSERVATIONS

STATION/POSITION TIME  TEMP    WIND        PRES    VSBY  WAVE
                       AIR SEA DIR/SP/G                  HT/PER
                 (UTC) (F)     (DEG/KT/KT) (MB)    (MI)  (FT/S)
BOSTON BUOY      1950   28 40  310/ 33/ 39 1015.0          7/ 6
BUZZARDS BAY     2000   31     310/ 28/ 31 1016.8R
NANTUCKET SOUND  2050      40              1015.0R         4/ 4
MASS BAY-STELLWA 2004   27 39  310/ 25/ 31 1014.9R         6/ 5
ISLE OF SHOALS   2000   22     310/ 38/ 47 1014.8R
S OF BLOCK IS    2055      40                N/A           8/ 6
$$

......................KEY.........................
  SKY/WX - SKY CONDITION/PRESENT WEATHER
  TMP    - TEMPERATURE IN FAHRENHEIT
  DWPT   - DEWPOINT IN FAHRENHEIT
  RH     - RELATIVE HUMIDITY IN PERCENT
  WIND   - DIRECTION AND SPEED IN MPH
  PRES   - MEAN SEA LEVEL PRESSURE IN INCHES OF HG
  WCI    - WIND CHILL INDEX
  VSB    - VISIBILITY IN MILES
  HX     - HEAT INDEX
  TC     - TEMPERATURE IN CELSIUS
  VRB    - VARIABLE WIND DIRECTION
  N/A    - NOT AVAILABLE




USA.gov is the U.S. government's official web portal to all federal, state and local government web resources and services.